Location: Fort Wayne
(41.1310°N, 85.1290°W)
Time: 00:46:48
(UTC-04:00)

Vanguard 3 - Visible Passes

Search period start: 27 July 2017 00:00
Search period end: 06 August 2017 00:00
Orbit: 508 x 3265 km, 33.3° (Epoch: 25 July)

Date Brightness Start Highest point End Pass type
(mag) Time Alt. Az. Time Alt. Az. Time Alt. Az.
01 Aug 9.3 04:56:44 10° S 04:58:13 11° SSE 04:59:34 10° SSE visible
02 Aug 8.5 05:52:21 10° SSW 05:56:22 19° SSE 05:59:29 10° ESE visible
03 Aug 9.1 04:41:54 15° S 04:42:56 16° SSE 04:46:08 10° SE visible
04 Aug 8.4 05:36:46 13° SW 05:41:08 25° S 05:44:51 10° ESE visible
05 Aug 8.9 04:27:02 21° S 04:27:38 22° SSE 04:31:50 10° ESE visible
